Frankfort, MI

8:33 AM EST on December 09, 2019 (GMT -0500)
Frankfort

Weather History for KFKS - October, 2019

Change the Weather History Date:

Tuesday, October 29, 2019

  Actual Average (WUND) Record (WUND)
Temperature  
Mean Temperature 41 °F -  
Max Temperature 47 °F - - (-1)
Min Temperature 35 °F - - (-1)
Degree Days  
Heating Degree Days 24    
Moisture  
Dew Point 36 °F    
Average Humidity 86    
Maximum Humidity 95    
Minimum Humidity 61    
Precipitation  
Precipitation 0.00 in - - ()
Sea Level Pressure  
Sea Level Pressure 30.13 in    
Wind  
Wind Speed 2 mph (NW)    
Max Wind Speed 14 mph    
Max Gust Speed 22 mph    
Visibility 8 miles    
Events Rain    
Averages and records for this station are not official NWS values.
T = Trace of Precipitation, MM = Missing Value Source: NWS Daily Summary

Daily Weather History Graph

Daily Weather History Graph

Search for Another Location

Airport or City:

Astronomy

Oct. 29, 2019 Rise Set
Actual Time 8:18 AM EDT 6:38 PM EDT
Civil Twilight 7:47 AM EDT 7:08 PM EDT
Nautical Twilight 7:13 AM EDT 7:42 PM EDT
Astronomical Twilight 6:39 AM EDT 8:16 PM EDT
Moon 9:53 AM EDT (10/29) 7:58 PM EDT (10/29)
Length of Visible Light 11h 20m
Length of Day
10h 20m
Waxing Crescent, 3% of the Moon is Illuminated
Oct 29
Waxing Crescent
Nov 4
First Quarter
Nov 12
Full
Nov 19
Last Quarter
Nov 26
New

Hourly Weather History & Observations

Time (EDT) Temp. Windchill Dew Point Humidity Pressure Visibility Wind Dir Wind Speed Gust Speed Precip Events Conditions
12:15 AM 47.8 °F - 36.9 °F 66% 30.02 in 10.0 mi Calm Calm - N/A   Overcast
12:35 AM 47.8 °F - 35.1 °F 61% 30.01 in 10.0 mi Calm Calm - N/A   Overcast
12:58 AM 46.4 °F - 38.1 °F 73% 30.00 in 10.0 mi Calm Calm - N/A   Overcast
1:16 AM 45.9 °F - 38.1 °F 74% 29.99 in 10.0 mi Calm Calm - N/A   Overcast
1:35 AM 45.5 °F - 38.7 °F 77% 29.99 in 10.0 mi Calm Calm - N/A   Overcast
1:55 AM 45.9 °F - 38.3 °F 75% 30.00 in 10.0 mi Calm Calm - N/A   Overcast
1:56 AM 45.9 °F - 38.3 °F 75% 30.00 in 10.0 mi Calm Calm - N/A   Overcast
2:19 AM 45.9 °F 42.3 °F 37.8 °F 73% 30.00 in 5.0 mi NW 6.9 mph - N/A   Drizzle
2:37 AM 45.0 °F 42.6 °F 38.3 °F 77% 30.01 in 4.0 mi NW 4.6 mph - N/A   Drizzle
2:55 AM 44.2 °F 39.7 °F 38.3 °F 80% 30.02 in 3.0 mi WNW 8.1 mph - N/A   Drizzle
2:56 AM 44.2 °F 39.7 °F 38.3 °F 80% 30.02 in 3.0 mi WNW 8.1 mph - N/A   Drizzle
3:15 AM 43.3 °F 37.2 °F 37.8 °F 81% 30.03 in 3.0 mi WNW 11.5 mph 16.1 mph N/A   Drizzle
3:16 AM 43.3 °F 37.2 °F 37.6 °F 80% 30.03 in 3.0 mi NW 11.5 mph 16.1 mph N/A   Drizzle
3:35 AM 42.3 °F 35.1 °F 35.8 °F 78% 30.03 in 5.0 mi NW 13.8 mph 17.3 mph N/A Rain Light Rain
3:58 AM 40.8 °F 35.0 °F 33.8 °F 76% 30.03 in 7.0 mi NW 9.2 mph 21.9 mph N/A Rain Light Rain
4:16 AM 40.1 °F 34.1 °F 34.2 °F 79% 30.05 in 5.0 mi NNW 9.2 mph - N/A Rain Light Rain
4:35 AM 40.5 °F 33.6 °F 35.1 °F 81% 30.07 in 4.0 mi NW 11.5 mph 19.6 mph N/A Rain Light Rain
4:55 AM 39.9 °F 36.7 °F 34.7 °F 82% 30.05 in 5.0 mi NNW 4.6 mph - N/A Rain Rain
4:56 AM 39.9 °F 35.8 °F 34.7 °F 82% 30.05 in 5.0 mi NW 5.8 mph - N/A Rain Rain
5:19 AM 39.0 °F 33.4 °F 33.8 °F 82% 30.06 in 3.0 mi NW 8.1 mph - N/A Rain Light Rain
5:37 AM 38.3 °F - 33.4 °F 83% 30.07 in 4.0 mi Calm Calm - N/A   Overcast
5:55 AM 38.3 °F - 33.8 °F 84% 30.06 in 5.0 mi Calm Calm - N/A Rain Light Rain
5:56 AM 38.3 °F - 33.8 °F 84% 30.06 in 5.0 mi Calm Calm - N/A Rain Light Rain
6:15 AM 38.7 °F - 34.0 °F 83% 30.05 in 10.0 mi Calm Calm - N/A Rain Light Rain
6:16 AM 38.8 °F - 34.2 °F 83% 30.06 in 10.0 mi Calm Calm - N/A Rain Light Rain
6:35 AM 39.2 °F - 34.7 °F 84% 30.05 in 10.0 mi Calm Calm - N/A   Drizzle
6:40 AM 39.4 °F - 34.7 °F 83% 30.05 in 10.0 mi Calm Calm - N/A   Drizzle
6:58 AM 39.2 °F - 34.7 °F 84% 30.06 in 10.0 mi Calm Calm - N/A   Light Drizzle
7:35 AM 39.4 °F - 35.1 °F 84% 30.06 in 10.0 mi Calm Calm - N/A   Drizzle
7:36 AM 39.4 °F - 35.1 °F 84% 30.06 in 10.0 mi Calm Calm - N/A   Drizzle
7:55 AM 39.6 °F - 35.6 °F 86% 30.06 in 10.0 mi Calm Calm - N/A   Overcast
7:56 AM 39.6 °F - 35.6 °F 86% 30.06 in 10.0 mi Calm Calm - N/A   Overcast
8:19 AM 40.3 °F - 36.1 °F 85% 30.08 in 10.0 mi Calm Calm - N/A   Overcast
8:37 AM - - - N/A% - - North - - N/A   Unknown
8:55 AM - - - N/A% - - North - - N/A   Unknown
8:56 AM - - - N/A% - - North - - N/A   Unknown
9:15 AM - - - N/A% - - North - - N/A   Unknown
9:16 AM - - - N/A% - - North - - N/A   Unknown
9:35 AM 39.4 °F - 36.0 °F 88% - - North - - N/A   Unknown
9:36 AM 39.4 °F - 36.0 °F 88% - - North - - N/A   Unknown
9:58 AM 39.9 °F - 36.3 °F 87% 30.10 in 10.0 mi Calm Calm - N/A   Overcast
10:15 AM 39.7 °F - 36.5 °F 88% 30.09 in 10.0 mi Calm Calm - N/A   Overcast
10:36 AM 40.3 °F 37.1 °F 36.5 °F 86% 30.09 in 10.0 mi North 4.6 mph - N/A   Overcast
10:55 AM 40.3 °F 38.2 °F 36.9 °F 88% 30.10 in 10.0 mi North 3.5 mph - N/A   Overcast
11:15 AM 40.5 °F - 36.7 °F 86% 30.11 in 10.0 mi Calm Calm - N/A   Overcast
11:16 AM 40.5 °F - 36.7 °F 86% 30.11 in 10.0 mi Calm Calm - N/A   Overcast
11:38 AM 40.1 °F - 37.0 °F 89% 30.12 in 2.0 mi Calm Calm - N/A   Light Drizzle
11:57 AM 39.7 °F - 36.9 °F 89% 30.12 in 4.0 mi Calm Calm - N/A Rain Light Rain
12:15 PM 40.1 °F - 37.2 °F 89% 30.13 in 5.0 mi Calm Calm - N/A Rain Light Rain
12:35 PM 39.7 °F - 37.6 °F 92% 30.12 in 4.0 mi Calm Calm - N/A   Drizzle
12:36 PM 39.7 °F - 37.4 °F 91% 30.12 in 4.0 mi Calm Calm - N/A   Drizzle
12:55 PM 39.7 °F - 37.6 °F 92% 30.14 in 3.0 mi Calm Calm - N/A Rain Light Rain
1:00 PM 39.6 °F - 37.4 °F 92% 30.14 in 3.0 mi Calm Calm - N/A Rain Rain
1:18 PM 39.6 °F 35.4 °F 37.2 °F 91% 30.15 in 4.0 mi NW 5.8 mph - N/A Rain Light Rain
1:36 PM 39.9 °F 37.8 °F 37.6 °F 91% 30.15 in 3.0 mi NNW 3.5 mph - N/A Rain Rain
1:55 PM 39.7 °F 34.9 °F 36.9 °F 89% 30.15 in 5.0 mi NW 6.9 mph - N/A   Light Drizzle
1:56 PM 39.7 °F 36.5 °F 36.7 °F 89% 30.15 in 5.0 mi NNW 4.6 mph - N/A   Light Drizzle
2:15 PM 39.2 °F 33.6 °F 36.5 °F 90% 30.15 in 4.0 mi NNW 8.1 mph - N/A Rain Light Rain
2:16 PM 39.2 °F 34.2 °F 36.5 °F 90% 30.15 in 4.0 mi NW 6.9 mph - N/A Rain Light Rain
2:38 PM 39.7 °F 35.6 °F 36.9 °F 89% 30.15 in 7.0 mi NW 5.8 mph - N/A Rain Light Rain
3:36 PM 40.1 °F 36.9 °F 36.1 °F 86% 30.17 in 10.0 mi NNW 4.6 mph - N/A   Overcast
3:55 PM 40.1 °F 38.0 °F 35.6 °F 84% 30.17 in 10.0 mi NW 3.5 mph - N/A   Overcast
4:00 PM 40.1 °F - 36.0 °F 85% 30.17 in 10.0 mi Calm Calm - N/A   Overcast
4:18 PM 40.1 °F 34.1 °F 35.4 °F 83% 30.17 in 10.0 mi NW 9.2 mph - N/A   Overcast
4:36 PM 39.2 °F 33.0 °F 35.6 °F 87% 30.18 in 7.0 mi NW 9.2 mph - N/A Rain Light Rain
4:55 PM 38.8 °F 34.6 °F 35.6 °F 88% 30.20 in 10.0 mi NW 5.8 mph - N/A Rain Light Rain
4:56 PM 38.8 °F 35.4 °F 35.6 °F 88% 30.20 in 10.0 mi NW 4.6 mph - N/A   Light Drizzle
5:15 PM 39.2 °F 35.0 °F 35.8 °F 88% 30.20 in 10.0 mi NW 5.8 mph - N/A   Light Drizzle
5:16 PM 39.0 °F 34.0 °F 35.8 °F 88% 30.20 in 7.0 mi NW 6.9 mph - N/A   Light Drizzle
5:39 PM 38.7 °F - 35.4 °F 88% 30.20 in 10.0 mi Calm Calm - N/A   Light Drizzle
5:57 PM 38.8 °F - 35.6 °F 88% 30.21 in 10.0 mi Calm Calm - N/A   Overcast
6:15 PM 38.8 °F - 35.6 °F 88% 30.21 in 10.0 mi Calm Calm - N/A   Overcast
6:35 PM 38.3 °F - 35.6 °F 90% 30.21 in 10.0 mi Calm Calm - N/A   Overcast
6:36 PM 38.3 °F - 35.6 °F 90% 30.21 in 10.0 mi Calm Calm - N/A   Overcast
6:55 PM 38.5 °F - 35.6 °F 89% 30.21 in 10.0 mi Calm Calm - N/A   Overcast
7:00 PM 38.3 °F - 35.6 °F 90% 30.22 in 10.0 mi Calm Calm - N/A   Overcast
7:18 PM 37.8 °F - 35.6 °F 92% 30.23 in 10.0 mi Calm Calm - N/A   Overcast
7:36 PM 37.8 °F - 36.0 °F 93% 30.23 in 10.0 mi Calm Calm - N/A   Overcast
7:55 PM 38.3 °F - 35.2 °F 89% 30.23 in 10.0 mi Calm Calm - N/A   Overcast
7:56 PM 38.3 °F - 35.4 °F 89% 30.23 in 10.0 mi Calm Calm - N/A   Overcast
8:15 PM 37.8 °F - 35.8 °F 93% 30.24 in 10.0 mi Calm Calm - N/A   Overcast
8:39 PM 37.4 °F - 35.6 °F 93% 30.24 in 10.0 mi Calm Calm - N/A   Overcast
8:57 PM 37.6 °F - 35.8 °F 93% 30.24 in 10.0 mi Calm Calm - N/A   Overcast
9:15 PM 37.0 °F - 35.4 °F 94% 30.24 in 10.0 mi Calm Calm - N/A   Overcast
9:35 PM 36.0 °F - 34.3 °F 94% 30.25 in 10.0 mi Calm Calm - N/A   Overcast
9:55 PM 36.0 °F - 34.7 °F 95% 30.25 in 10.0 mi Calm Calm - N/A   Overcast
10:00 PM 35.8 °F - 34.5 °F 95% 30.25 in 10.0 mi Calm Calm - N/A   Overcast
10:18 PM 35.8 °F - 34.5 °F 95% 30.25 in 10.0 mi Calm Calm - N/A   Overcast
10:36 PM 35.6 °F - 34.2 °F 94% 30.26 in 10.0 mi Calm Calm - N/A   Overcast
10:55 PM 35.6 °F - 34.2 °F 94% 30.27 in 10.0 mi Calm Calm - N/A   Overcast
11:15 PM 35.6 °F - 34.2 °F 94% 30.27 in 10.0 mi Calm Calm - N/A   Overcast
11:16 PM 35.6 °F - 34.2 °F 94% 30.27 in 10.0 mi Calm Calm - N/A   Overcast
11:39 PM 35.6 °F - 34.2 °F 94% 30.28 in 10.0 mi Calm Calm - N/A   Overcast
11:57 PM 36.0 °F - 34.7 °F 95% 30.28 in 10.0 mi Calm Calm - N/A   Overcast